www.pogodaiklimat.ru

Погода и климат >> Архив погоды >> Австрия >> Грац университет


ПОГОДА в Граце университет

  • Прогноз погоды в Граце университет
  • Монитор погоды в Граце университет

АРХИВ ПОГОДЫ в Граце университет

Время (UTC), дата Ветер
(напр.,м/с)
 
Видим.   Явления Облачность Т
(С)
Тd
(С)
f
(%)
Тe
(С)
Тes
(С)
Комфортность P
(гПа)
Po
(гПа)
Тmin
(С)
Tmax
(С)
R
(мм)
R24
(мм)
S
(см)
10 12.07 В 1 н/о н/о +21.5 +13.0 58 +24 +24 комфорт 1012.5 969.5
11 12.07 ЮВ 1 н/о н/о +22.2 +12.0 52 +25 +25 комфорт 1011.9 969.0
12 12.07 Ю 2 н/о {осадки} н/о +23.4 +11.7 48 +26 +26 жарко 1010.9 968.2 0.0
13 12.07 Ю 3 н/о н/о +23.9 +11.9 47 +26 +26 жарко 1010.3 967.7
14 12.07 Ю 2 н/о н/о +24.9 +12.0 45 +27 +27 жарко 1009.7 967.3
15 12.07 СВ 1 н/о н/о +23.5 +13.1 52 +26 +26 жарко 1009.7 967.1
16 12.07 Ю 1 н/о в посл. час осадки н/о +16.7 +13.4 81 +18 +18 1011.4 967.8 4
17 12.07 ЮЗ 1 н/о н/о +17.8 +14.4 80 +19 +19 1010.9 967.5 0.0
18 12.07 СЗ 1 н/о {осадки} н/о +17.2 +14.1 82 +18 +18 1011.6 968.0 +15.1 +25.4 4
19 12.07 Ю 2 н/о н/о +17.2 +14.2 83 +18 +18 1011.8 968.2
20 12.07 СВ 2 н/о осадки н/о +17.0 +14.7 86 +17 +17 1012.4 968.8 0.1
21 12.07 Ю 1 н/о в посл. час осадки н/о +16.5 +14.8 90 +17 +17 1012.2 968.5 0.1
22 12.07 СЗ 1 н/о н/о +16.3 +14.7 90 +17 +17 1012.2 968.5
23 12.07 С 2 н/о н/о +16.2 +14.3 89 +16 +16 1011.9 968.2
00 13.07 С 1 н/о осадки {ливн. осадки} н/о +15.8 +13.9 88 +16 +16 1011.3 967.5 0.2
01 13.07 СЗ 1 н/о н/о +15.7 +13.4 86 +16 +16 1010.7 966.9
02 13.07 штиль 0 н/о н/о +15.5 +13.6 88 +15 +15 1010.6 966.8
03 13.07 штиль 0 н/о в посл. час осадки н/о +15.5 +14.2 92 +15 +15 1010.0 966.3 0.0
04 13.07 С 1 н/о н/о +15.1 +12.9 87 +16 +16 1010.6 966.7
05 13.07 В 1 н/о н/о +15.0 +13.2 89 +15 +15 1010.6 966.7
06 13.07 штиль 0 н/о {осадки} н/о +16.1 +13.1 82 +16 +16 1010.7 967.0 +14.8 +17.4 0.2
07 13.07 ЮЗ 1 н/о н/о +18.7 +14.1 75 +21 +21 комфорт 1010.4 967.1
08 13.07 ЮЗ 1 н/о н/о +20.4 +13.1 63 +24 +24 комфорт 1010.0 966.9
09 13.07 ЮЗ 2 н/о н/о +20.4 +12.4 60 +23 +23 комфорт 1010.5 967.4
10 13.07 З 2 н/о н/о +20.3 +13.9 67 +23 +23 комфорт 1010.7 967.6
11 13.07 С 1 н/о в посл. час осадки н/о +17.0 +12.9 77 +18 +18 1011.6 968.0 1
12 13.07 С 5 н/о {осадки} н/о +20.2 +9.2 49 +21 +21 комфорт 1011.0 967.8 1
14 13.07 З 3 н/о н/о +21.4 +8.0 42 +22 +22 комфорт 1010.5 967.5
15 13.07 СЗ 4 н/о н/о +22.1 +9.1 43 +23 +23 комфорт 1010.2 967.3 0.0
17 13.07 СЗ 3 н/о н/о +20.3 +9.1 49 +22 +22 комфорт 1011.4 968.2
18 13.07 СЗ 3 н/о н/о +19.9 +9.1 50 +21 +21 комфорт 1011.3 968.1 +15.7 +22.5 1
19 13.07 СЗ 3 н/о н/о +19.3 +9.0 51 +20 +20 1011.8 968.5
20 13.07 СЗ 2 н/о н/о +18.2 +9.2 56 +19 +19 1012.3 968.8
21 13.07 СЗ 2 н/о н/о +18.2 +9.1 55 +19 +19 1012.6 969.1
22 13.07 З 3 н/о н/о +18.4 +8.5 52 +19 +19 1012.5 969.0
23 13.07 СЗ 1 н/о н/о +17.7 +9.0 57 +19 +19 1012.8 969.2
00 14.07 СЗ 1 н/о н/о +16.6 +9.5 63 +18 +18 1012.6 968.8
01 14.07 СЗ 1 н/о н/о +15.5 +10.1 70 +16 +16 1012.5 968.6
02 14.07 С 2 н/о н/о +15.9 +9.6 66 +16 +16 1011.9 968.1
03 14.07 СЗ 2 н/о н/о +16.3 +9.7 65 +16 +16 1012.0 968.2
04 14.07 З 2 н/о н/о +15.7 +10.1 69 +16 +16 1012.5 968.6
05 14.07 З 2 н/о н/о +16.6 +10.5 67 +17 +17 1012.4 968.7
06 14.07 З 2 н/о н/о +17.9 +10.8 63 +18 +18 1012.3 968.8 +15.5 +19.9
07 14.07 СЗ 3 н/о н/о +20.2 +10.4 53 +22 +22 комфорт 1012.2 969.0
08 14.07 СЗ 3 н/о н/о +20.9 +10.0 50 +23 +23 комфорт 1012.3 969.2
09 14.07 С 4 н/о н/о +21.3 +9.0 45 +23 +23 комфорт 1012.4 969.3
10 14.07 СЗ 4 н/о н/о +22.7 +8.9 41 +24 +24 комфорт 1011.9 969.0
11 14.07 СЗ 3 н/о н/о +22.6 +8.7 41 +24 +24 комфорт 1011.8 968.9 0.0
12 14.07 С 2 н/о н/о +23.8 +8.8 38 +24 +24 комфорт 1011.2 968.5 0.0
13 14.07 З 2 н/о н/о +24.3 +8.8 37 +25 +25 комфорт 1010.6 968.0
14 14.07 СЗ 4 н/о н/о +24.3 +8.4 36 +25 +25 комфорт 1010.5 967.9
15 14.07 СЗ 4 н/о н/о +24.6 +8.7 36 +25 +25 комфорт 1010.2 967.7
16 14.07 СЗ 4 н/о н/о +24.6 +9.4 38 +25 +25 комфорт 1010.2 967.7
17 14.07 В 4 н/о н/о +22.9 +10.3 45 +25 +25 комфорт 1011.0 968.2
18 14.07 В 2 н/о н/о +20.9 +10.2 50 +23 +23 комфорт 1011.9 968.8 +17.7 +25.8 0.0
19 14.07 С 1 н/о н/о +20.2 +10.2 53 +23 +23 комфорт 1012.2 969.0
20 14.07 штиль 0 н/о н/о +19.0 +10.4 57 +20 +20 1012.7 969.3
21 14.07 СВ 1 н/о н/о +17.2 +11.2 68 +18 +18 1013.5 969.8
22 14.07 штиль 0 н/о н/о +16.6 +11.4 71 +17 +17 1013.6 969.8
23 14.07 СВ 2 н/о н/о +15.9 +11.0 73 +16 +16 1013.7 969.8
00 15.07 В 1 н/о н/о +15.6 +10.9 74 +16 +16 1014.0 970.0
01 15.07 В 1 н/о н/о +14.9 +10.7 76 +15 +15 1013.6 969.6
02 15.07 СВ 1 н/о н/о +13.7 +10.3 80 +14 +14 1013.5 969.3
03 15.07 СВ 1 н/о н/о +12.9 +9.8 81 +13 +13 1013.7 969.3
04 15.07 СВ 1 н/о н/о +12.4 +9.4 82 +12 +12 1014.3 969.8
05 15.07 СЗ 1 н/о н/о +14.5 +9.7 73 +15 +15 1014.1 970.0
06 15.07 С 1 н/о н/о +16.3 +10.2 67 +17 +17 1014.0 970.1 +12.2 +21.0
07 15.07 СВ 2 н/о н/о +18.2 +10.2 60 +19 +19 1013.4 969.8
08 15.07 СВ 4 н/о н/о +22.3 +9.6 44 +24 +24 комфорт 1012.5 969.6
09 15.07 В 2 н/о н/о +23.0 +9.8 43 +25 +25 комфорт 1012.3 969.5
10 15.07 В 3 н/о н/о +22.9 +10.5 45 +25 +25 комфорт 1012.4 969.6
11 15.07 ЮВ 1 н/о н/о +21.4 +8.2 43 +23 +23 комфорт 1012.9 969.8
12 15.07 ЮЗ 2 н/о н/о +22.4 +11.7 51 +25 +25 комфорт 1012.6 969.7
13 15.07 В 2 н/о н/о +22.4 +8.8 42 +24 +24 комфорт 1012.6 969.7
14 15.07 В 2 н/о н/о +22.6 +8.6 41 +24 +24 комфорт 1012.7 969.8
15 15.07 В 3 н/о н/о +22.7 +8.6 40 +24 +24 комфорт 1012.6 969.7
16 15.07 В 2 н/о н/о +22.5 +8.2 40 +24 +24 комфорт 1012.4 969.5
17 15.07 СВ 2 н/о н/о +22.5 +8.4 40 +24 +24 комфорт 1012.4 969.5
18 15.07 С 1 н/о н/о +22.3 +7.8 39 +23 +23 комфорт 1012.6 969.6 +16.2 +24.0
19 15.07 СВ 2 н/о н/о +19.4 +10.0 55 +21 +21 комфорт 1013.2 969.8
20 15.07 СВ 2 н/о н/о +17.3 +10.1 63 +18 +18 1014.0 970.3
21 15.07 СВ 2 н/о н/о +16.4 +10.1 66 +17 +17 1014.6 970.7
22 15.07 СВ 1 н/о н/о +16.3 +10.0 66 +17 +17 1014.8 970.9
23 15.07 С 1 н/о н/о +15.5 +9.9 69 +16 +16 1015.0 971.0
00 16.07 СВ 2 н/о н/о +14.1 +9.6 74 +14 +14 1015.3 971.0
01 16.07 С 1 н/о н/о +13.4 +9.5 77 +14 +14 1015.3 970.9
02 16.07 С 1 н/о н/о +14.0 +9.7 75 +14 +14 1015.0 970.7
03 16.07 СЗ 2 н/о н/о +14.0 +9.7 75 +14 +14 1015.0 970.7
04 16.07 С 1 н/о н/о +13.4 +9.6 78 +14 +14 1014.8 970.5
05 16.07 С 1 н/о н/о +14.5 +9.8 73 +15 +15 1014.9 970.7
06 16.07 С 1 н/о н/о +16.5 +10.1 66 +17 +17 1014.6 970.7 +13.1 +22.4
07 16.07 З 1 н/о н/о +19.3 +10.9 58 +21 +21 комфорт 1014.2 970.8
08 16.07 ЮВ 2 н/о н/о +22.6 +10.0 45 +24 +24 комфорт 1013.3 970.4
09 16.07 ЮВ 1 н/о н/о +24.0 +11.0 44 +25 +25 комфорт 1012.8 970.1
10 16.07 Ю 3 н/о н/о +24.7 +9.3 38 +25 +25 комфорт 1012.4 969.8
11 16.07 ЮЗ 3 н/о н/о +24.4 +9.5 39 +25 +25 комфорт 1012.4 969.8
12 16.07 Ю 3 н/о н/о +25.3 +9.7 37 +26 +26 жарко 1011.8 969.3
13 16.07 ЮВ 3 н/о н/о +24.5 +10.1 40 +25 +25 комфорт 1011.9 969.3
14 16.07 ЮВ 2 н/о н/о +26.0 +10.2 37 +27 +27 жарко 1011.5 969.1
15 16.07 Ю 3 н/о н/о +25.3 +10.4 39 +26 +26 жарко 1011.2 968.7
16 16.07 ЮВ 2 н/о н/о +25.4 +10.7 40 +26 +26 жарко 1010.8 968.4
17 16.07 Ю 1 н/о н/о +25.4 +10.5 39 +26 +26 жарко 1010.6 968.2
18 16.07 Ю 1 н/о н/о +25.1 +10.7 40 +26 +26 жарко 1011.0 968.5 +16.3 +26.3
19 16.07 ЮВ 1 н/о н/о +22.9 +11.2 48 +25 +25 комфорт 1011.8 969.0
20 16.07 СВ 2 н/о н/о +20.0 +12.1 60 +22 +22 комфорт 1013.1 969.8
21 16.07 СВ 1 н/о н/о +18.3 +12.1 67 +20 +20 1013.6 970.1
22 16.07 СВ 2 н/о н/о +16.8 +11.3 70 +17 +17 1014.0 970.2
23 16.07 СЗ 1 н/о н/о +15.6 +10.9 74 +16 +16 1014.5 970.5
00 17.07 СЗ 1 н/о н/о +15.4 +10.6 73 +16 +16 1014.7 970.7
01 17.07 штиль 0 н/о н/о +14.3 +10.0 75 +14 +14 1014.9 970.7
02 17.07 СВ 1 н/о н/о +14.0 +9.8 76 +14 +14 1014.5 970.3
03 17.07 СЗ 1 н/о н/о +13.5 +9.6 77 +14 +14 1014.7 970.4
04 17.07 СВ 1 н/о н/о +13.3 +9.5 78 +14 +14 1014.8 970.4
05 17.07 СВ 1 н/о н/о +14.1 +9.7 75 +14 +14 1014.9 970.7
06 17.07 штиль 0 н/о н/о +16.9 +10.1 64 +17 +17 1014.5 970.7 +13.2 +25.2
07 17.07 ЮВ 2 н/о н/о +19.0 +10.4 57 +20 +20 1013.8 970.3 0.0
08 17.07 Ю 1 н/о н/о +21.5 +10.6 50 +23 +23 комфорт 1013.2 970.1
09 17.07 Ю 3 н/о н/о +23.8 +12.4 49 +26 +26 жарко 1012.4 969.7 0.0
10 17.07 Ю 2 н/о н/о +24.0 +10.8 43 +25 +25 комфорт 1011.9 969.2
11 17.07 ЮЗ 2 н/о н/о +25.2 +11.4 42 +27 +27 жарко 1011.0 968.6
12 17.07 Ю 2 н/о н/о +26.9 +11.3 38 +28 +28 жарко 1010.4 968.2 0.0
13 17.07 ЮВ 3 н/о н/о +27.0 +11.2 37 +28 +28 жарко 1010.1 967.9
14 17.07 ЮВ 3 н/о н/о +27.1 +11.9 39 +28 +28 жарко 1009.9 967.8
15 17.07 ЮВ 3 н/о н/о +27.1 +12.1 39 +28 +28 жарко 1009.6 967.5
16 17.07 ЮВ 3 н/о н/о +26.3 +11.9 41 +28 +28 жарко 1009.3 967.1
17 17.07 ЮВ 4 н/о н/о +25.7 +12.7 44 +27 +27 жарко 1009.4 967.1
18 17.07 ЮВ 2 н/о н/о +24.9 +13.5 49 +27 +27 жарко 1009.7 967.3 +16.3 +27.9 0.0
19 17.07 СВ 1 н/о осадки н/о +23.5 +14.7 58 +26 +26 жарко 1010.5 967.9 0.2
20 17.07 С 2 н/о в посл. час осадки н/о +20.1 +16.5 80 +23 +23 комфорт 1011.7 968.6 0.4
21 17.07 СВ 3 н/о {осадки} н/о +19.8 +14.9 73 +22 +22 комфорт 1011.6 968.4 0.6
22 17.07 С 2
{14}
н/о осадки н/о +16.8 +14.3 85 +17 +17 1014.1 970.4 1
23 17.07 СЗ 2
{14}
н/о осадки н/о +16.0 +14.5 91 +16 +16 1014.1 970.3 3
00 18.07 СЗ 2
{14}
н/о в посл. час осадки {ливн. осадки} н/о +15.7 +14.1 90 +16 +16 1012.5 968.7 5
01 18.07 СЗ 2 н/о н/о +15.8 +14.2 90 +16 +16 1011.6 967.8
02 18.07 ЮВ 1 н/о н/о +15.2 +14.1 93 +16 +16 1011.7 967.8
03 18.07 С 1 н/о н/о +15.2 +14.1 93 +16 +16 1012.0 968.1
04 18.07 С 2 н/о в посл. час осадки н/о +14.7 +13.2 91 +14 +14 1012.4 968.4 0.1
05 18.07 С 2 н/о н/о +15.2 +13.5 90 +15 +15 1012.5 968.6
06 18.07 СЗ 2
{14}
н/о {осадки} н/о +16.4 +13.9 85 +17 +17 1012.5 968.8 +14.7 +25.0 5
07 18.07 С 1 н/о н/о +19.1 +14.0 72 +21 +21 комфорт 1012.3 969.0
08 18.07 Ю 1 н/о н/о +21.6 +13.9 62 +24 +24 комфорт 1012.1 969.1
09 18.07 Ю 2 н/о н/о +23.0 +12.8 53 +26 +26 жарко 1011.8 969.0
10 18.07 В 2 н/о н/о +24.9 +13.8 50 +27 +27 жарко 1011.3 968.8
11 18.07 ЮЗ 3 н/о н/о +24.8 +13.7 50 +27 +27 жарко 1011.4 968.9
12 18.07 ЮЗ 3 н/о н/о +25.7 +14.5 50 +28 +28 жарко 1010.8 968.5
13 18.07 ЮВ 3 н/о н/о +26.9 +14.7 47 +29 +29 жарко 1010.1 968.0
14 18.07 СВ 6 н/о н/о +22.6 +12.8 54 +25 +25 комфорт 1011.7 968.9
15 18.07 СВ 5 н/о н/о +19.7 +13.7 68 +21 +21 комфорт 1011.9 968.7
16 18.07 штиль 0 н/о н/о +20.8 +12.6 59 +23 +23 комфорт 1012.9 969.8
17 18.07 ЮЗ 2 н/о в посл. час осадки н/о +19.9 +15.1 74 +23 +23 комфорт 1013.3 970.1 0.2
18 18.07 ЮЗ 2 н/о {осадки} н/о +19.3 +14.3 73 +21 +21 комфорт 1014.1 970.7 +16.1 +27.2 0.2
19 18.07 С 1 н/о н/о +18.9 +14.9 78 +21 +21 комфорт 1014.1 970.7
20 18.07 СЗ 2 н/о н/о +18.0 +14.4 79 +19 +19 1014.7 971.1
21 18.07 С 2 н/о н/о +17.2 +14.4 84 +18 +18 1014.8 971.1
22 18.07 СВ 2 н/о н/о +16.3 +14.0 86 +16 +16 1014.9 971.1
23 18.07 С 2 н/о н/о +15.6 +13.5 87 +15 +15 1015.4 971.4
00 19.07 СЗ 1 н/о н/о +14.6 +13.1 91 +15 +15 1015.8 971.6
01 19.07 С 1 н/о н/о +15.0 +12.9 87 +15 +15 1015.5 971.4
02 19.07 С 1 н/о н/о +14.0 +12.3 89 +14 +14 1015.8 971.5
03 19.07 С 1 н/о н/о +13.3 +11.8 91 +13 +13 1016.0 971.6
05 19.07 СВ 1 н/о н/о +13.9 +12.0 88 +14 +14 1016.1 971.8
06 19.07 СЗ 2 н/о н/о +16.8 +12.6 76 +17 +17 1015.8 972.0 +12.8 +19.6
07 19.07 ЮЗ 1 н/о н/о +18.8 +13.8 73 +21 +21 комфорт 1015.7 972.2
08 19.07 ЮЗ 2 н/о н/о +23.4 +15.2 60 +28 +28 душно 1015.0 972.2
09 19.07 Ю 2 н/о н/о +24.6 +15.0 55 +27 +27 жарко 1014.9 972.3

 

Местоположение метеостанции Грац университет (Австрия): широта 47.12 долгота 15.45 высота над уровнем моря 366 м.

В архиве по умолчанию представлена погода в Граце университет за последнюю неделю. Архивные данные за месяц целиком и за предыдущие месяцы, начиная с января 2011 года, Вы можете получить, выбрав интересующий диапазон дат из раскрывающегося списка и нажав кнопку "Ввод!".


*Определитесь, кто Вы:
робот инопланетянин человек

Внимание! Время в таблицах - всемирное. Для получения местного времени необходимо прибавить поправку, которая равна 1 ч.

Смотрите также архив погоды в соседних городах и на ближайших метеорологических станциях:

Погода в Санкт Радегунд бай Грац (Австрия) (6 км)
Погода на Шёкле (Австрия) (9 км)
Погода в Ласницхёэ (Австрия) (11 км)
Погода в Граце (Австрия) (13 км)
Погода в Кёфлаге (Австрия) (29 км)
Погода в Брукк-ан-дер-Муре (Австрия) (36 км)
Погода в Дойчландсберге (Австрия) (37 км)
Погода в Фельбахе (Австрия) (38 км)
Погода в Фишбахе (Австрия) (38 км)
Погода в Капфенберге (Австрия) (38 км)

Пояснения к столбцам:

Ветер - указаны скорость ветра в м/с - средняя за 10 мин, порывы в срок и между сроками (в фигурных скобках) и направление, откуда дует ветер: С - северный, СВ - северо-восточный, В - восточный, ЮВ - юго-восточный, Ю - южный, ЮЗ - юго-западный, З - западный, СЗ - северо-западный.
Видимость - горизонтальная дальность видимости в метрах или километрах. При видимости от 1 до 10 км при отсутствии осадков обычно наблюдается дымка, при ухудшении видимости до 1 км и менее - туман. В сухую погоду видимость может ухудшаться дымом, пылью или мглою.
Явления - указаны атмосферные явления, наблюдавшиеся в срок или в последний час перед сроком; фигурными скобками обозначены явления, наблюдавшиеся между сроками (за 1-3 часа до срока); квадратными скобками обозначены град или гололедные отложения с указанием их диаметра в мм.
Облачность - указаны через наклонную черту общая и нижняя облачность в баллах и высота нижней границы облаков в метрах; квадратными скобками обозначены формы облаков: Ci - перистые, Cs - перисто-слоистые, Cc - перисто-кучевые, Ac - высококучевые, As - высокослоистые, Sc - слоисто-кучевые, Ns - слоисто-дождевые, Cu - кучевые, Cb - кучево-дождевые. Подробнее классификацию облаков см. в Атласе облаков (PDF).
T - Температура воздуха - температура, измеренная на высоте 2 м над землей.
Td - Температура точки росы - температура, при понижении до которой содержащийся в воздухе водяной пар достигнет насыщения.
f - Относительная влажность воздуха - влажноcть воздуха, измеренная на высоте 2 м над землей.
Te - Эффективная температура - температура, которую ощущает одетый по сезону человек в тени. Характеристика душности погоды. При расчете учитывается влияние влажности воздуха и скорости ветра на теплоощущения человека.
Tes - Эффективная температура на солнце - температура, которую ощущает человек, с поправкой на солнечный нагрев. Характеристика знойности погоды. Зависит от высоты солнца над горизонтом, облачности и скорости ветра. Ночью, в пасмурную погоду, а также при ветре 12 м/с и более поправка равна нулю.
P - Атмосферное давление - приведенное к уровню моря атмосферное давление.
Po - Атмосферное давление - измеренное на уровне метеостанции атмосферное давление.
Tmin - Минимальная температура - минимум температуры воздуха на высоте 2 м над землей.
Tmax - Максимальная температура - максимум температуры воздуха на высоте 2 м над землей.
R - Количество осадков - Количество выпавших осадков за период времени, мм. При наведении курсора мыши на число - период времени, за который выпало указанное количество осадков.
R24 - Количество осадков - Количество выпавших осадков за 24 часа, мм.
S - Снежный покров - Высота снежного покрова, см. При наведении курсора мыши на число - состояние снежного покрова и степень покрытия местности в баллах.